Погода в Сургоди

Россия / Республика Мордовия     54°02′24″N   43°05′16″E
темп.,
°C
ветер,
м/с
пор.,
м/с
влажн.,
%
обл.,
%
осадки,
мм/ч
давл.,
гПа
погр.,
м
24 июля, сб
сб2400:00+16з386792 0.0 1007243
03:00+12сз33893 0.0 100940
06:00+14сз23835 0.0 1009142
09:00+19сз345693 0.0 1010862
12:00+20с344954 0.1 10111277
15:00+20ссз455099 0.1 10121512
18:00+20сз35515 0.0 1013781
21:00+15с226642 0.0 101523
25 июля, вс
вс2500:00+13ссв227015 0.0 101719
03:00+12св22865 0.0 101918
06:00+13ссв237912 0.0 1020117
09:00+19св33526 0.0 1021785
12:00+21св2336100 0.0 10212549
15:00+21сз333994 0.0 10221260
18:00+21с234353 0.0 1022880
21:00+18с1148100 0.0 102311
26 июля, пн
пн2600:00+17с0146100 0.0 102311
03:00+15сз225498 0.0 102428
06:00+15сз11593 0.0 102545
09:00+21сз22406 0.0 1025628
12:00+24зсз333156 0.0 10242669
15:00+24сз543363 0.0 10242407
18:00+23ссз34394 0.0 1023858
21:00+17сз225638 0.0 102315
27 июля, вт
вт2700:00+16зсз22575 0.0 102411
03:00+16з235149 0.0 102447
06:00+15з23645 0.0 102495
09:00+22зсз34445 0.0 1023572
12:00+26сз34350 0.0 10222307
15:00+27ссз443388 0.0 10212407
18:00+25ссз23429 0.0 1020411
21:00+21зсз225370 0.0 102114
28 июля, ср
ср2800:00+17ссз11638 0.0 102111
03:00+18з22645 0.0 102018
06:00+18зсз24695 0.0 1020105
09:00+24зсз23495 0.0 1019642
12:00+28зсз343463 0.0 10172702
15:00+28з343395 0.0 10162437
18:00+26з224159 0.0 101599
21:00+22зюз234647 0.0 101530